Weather History for Wichita, KS

Change the Weather History Date:

Friday, November 8, 2013

  Actual Average Record
Temperature  
Mean Temperature 54 °F 49 °F  
Max Temperature 67 °F 60 °F 86 °F (2006)
Min Temperature 40 °F 38 °F 16 °F (1991)
Degree Days  
Heating Degree Days 11 16  
Month to date heating degree days 114 115  
Since 1 July heating degree days 368 401  
Cooling Degree Days 0 0  
Month to date cooling degree days 0 0  
Year to date cooling degree days 1778 1684  
Growing Degree Days 2 (Base 50)    
Moisture  
Dew Point 35 °F    
Average Humidity 56    
Maximum Humidity 85    
Minimum Humidity 26    
Precipitation  
Precipitation 0.00 in 0.06 in 2.31 in (1916)
Month to date precipitation 0.30 0.46  
Year to date precipitation 39.55 30.47  
Snow  
Snow 0.00 in 0.00 in 0.30 in (2011)
Month to date snowfall 0.0 0.1  
Since 1 July snowfall T 0.2  
Since 1 September snowfall T 0.2  
Snow Depth 0.00 in    
Sea Level Pressure  
Sea Level Pressure 30.05 in    
Wind  
Wind Speed 19 mph (South)    
Max Wind Speed 39 mph    
Max Gust Speed 51 mph    
Visibility 10 miles    
Events      
T = Trace of Precipitation, MM = Missing Value Source: NWS Daily Summary

Daily Weather History Graph

Daily Weather History Graph

Search for Another Location

Airport:

Trip Planner

Search our weather history database for the weather conditions in past years. The results will help you decide how hot, cold, wet, or windy it might be!

Date:

Astronomy

Nov. 08, 2013 Rise Set
Actual Time 7:02 AM CST 5:24 PM CST
Civil Twilight 6:34 AM CST 5:51 PM CST
Nautical Twilight 6:03 AM CST 6:22 PM CST
Astronomical Twilight 5:32 AM CST 6:53 PM CST
Moon 11:59 AM CST (11/8) 10:46 PM CST (11/8)
Length of Visible Light 11h 16m
Length of Day
10h 21m
Waxing Crescent, 33% of the Moon is Illuminated
Nov 8
Waxing Crescent
Nov 9
First Quarter
Nov 17
Full
Nov 25
Last Quarter
Dec 2
New

Hourly Weather History & Observations

Time (CST) Temp. Windchill Dew Point Humidity Pressure Visibility Wind Dir Wind Speed Gust Speed Precip Events Conditions
12:53 AM 42.1 °F 37.7 °F 33.1 °F 70% 30.28 in 10.0 mi SSE 6.9 mph - N/A   Clear
1:53 AM 42.1 °F 36.6 °F 35.1 °F 76% 30.25 in 10.0 mi SSE 9.2 mph - N/A   Clear
2:53 AM 41.0 °F 35.2 °F 35.1 °F 79% 30.23 in 10.0 mi SSE 9.2 mph - N/A   Clear
3:53 AM 39.9 °F 33.4 °F 35.1 °F 83% 30.20 in 10.0 mi SSE 10.4 mph - N/A   Clear
4:53 AM 39.9 °F 33.4 °F 35.1 °F 83% 30.18 in 10.0 mi South 10.4 mph - N/A   Clear
5:53 AM 39.9 °F 33.4 °F 34.0 °F 79% 30.16 in 10.0 mi South 10.4 mph - N/A   Clear
6:53 AM 41.0 °F 33.1 °F 34.0 °F 76% 30.15 in 10.0 mi South 15.0 mph - N/A   Partly Cloudy
7:53 AM 44.1 °F 37.4 °F 35.1 °F 71% 30.13 in 10.0 mi South 13.8 mph - N/A   Partly Cloudy
8:53 AM 52.0 °F - 36.0 °F 54% 30.11 in 10.0 mi South 17.3 mph - N/A   Partly Cloudy
9:53 AM 57.0 °F - 36.0 °F 45% 30.08 in 10.0 mi South 23.0 mph 33.4 mph N/A   Scattered Clouds
10:53 AM 60.1 °F - 36.0 °F 41% 30.05 in 10.0 mi South 27.6 mph 38.0 mph N/A   Mostly Cloudy
11:53 AM 63.0 °F - 34.0 °F 34% 30.02 in 10.0 mi SSW 36.8 mph 42.6 mph N/A   Mostly Cloudy
12:53 PM 64.0 °F - 33.1 °F 31% 29.98 in 10.0 mi SSW 29.9 mph 43.7 mph N/A   Scattered Clouds
1:53 PM 64.9 °F - 33.1 °F 31% 29.94 in 10.0 mi SSW 35.7 mph 43.7 mph N/A   Partly Cloudy
2:53 PM 66.0 °F - 30.0 °F 26% 29.92 in 10.0 mi South 34.5 mph 44.9 mph N/A   Scattered Clouds
3:53 PM 64.0 °F - 34.0 °F 33% 29.88 in 10.0 mi South 27.6 mph 36.8 mph N/A   Partly Cloudy
4:53 PM 61.0 °F - 34.0 °F 36% 29.90 in 10.0 mi South 26.5 mph 38.0 mph N/A   Partly Cloudy
5:53 PM 57.9 °F - 35.1 °F 42% 29.93 in 10.0 mi South 16.1 mph - N/A   Partly Cloudy
6:53 PM 55.0 °F - 35.1 °F 47% 29.96 in 10.0 mi South 17.3 mph - N/A   Partly Cloudy
7:53 PM 54.0 °F - 36.0 °F 51% 29.96 in 10.0 mi South 16.1 mph - N/A   Clear
8:53 PM 51.1 °F - 36.0 °F 56% 29.97 in 10.0 mi South 15.0 mph - N/A   Clear
9:53 PM 51.1 °F - 36.0 °F 56% 29.97 in 10.0 mi South 15.0 mph - N/A   Clear
10:53 PM 48.9 °F - 36.0 °F 61% 29.99 in 10.0 mi South 13.8 mph - N/A   Clear
11:53 PM 48.0 °F - 36.0 °F 63% 29.99 in 10.0 mi South 10.4 mph - N/A   Clear